Wetterdaten: Freitag, 07.03.2014
Datum Zeit Temperatur Luftfeuchte Luftdruck Regen Wind Richtung Richtung Taupunkt Windchill Windben
07.03.2014 00:00 -2,8 C 91 % 1024,6 hPa 0,0 l/m 0,2 km/h (0 Bft) NO 45 -4,1 C -3,2 C 0,0 km/h (0 Bft)
07.03.2014 00:05 -2,8 C 91 % 1024,6 hPa 0,0 l/m 0,2 km/h (0 Bft) NO 45 -4,1 C -3,1 C 0,0 km/h (0 Bft)
07.03.2014 00:10 -2,6 C 91 % 1024,4 hPa 0,0 l/m 0,0 km/h (0 Bft) NO 45 -3,9 C -3,2 C 0,0 km/h (0 Bft)
07.03.2014 00:15 -2,8 C 91 % 1024,4 hPa 0,0 l/m 0,0 km/h (0 Bft) NO 45 -4,1 C -3,2 C 0,0 km/h (0 Bft)
07.03.2014 00:20 -2,4 C 91 % 1024,4 hPa 0,0 l/m 0,0 km/h (0 Bft) NO 45 -3,7 C -3,2 C 0,0 km/h (0 Bft)
07.03.2014 00:25 -2,6 C 91 % 1024,4 hPa 0,0 l/m 0,0 km/h (0 Bft) NO 45 -3,9 C -3,3 C 0,0 km/h (0 Bft)
07.03.2014 00:30 -2,9 C 91 % 1024,2 hPa 0,0 l/m 0,0 km/h (0 Bft) NO 45 -4,2 C -3,4 C 0,0 km/h (0 Bft)
07.03.2014 00:35 -2,9 C 91 % 1024,2 hPa 0,0 l/m 0,0 km/h (0 Bft) NO 45 -4,2 C -3,3 C 0,0 km/h (0 Bft)
07.03.2014 00:40 -3,3 C 90 % 1024,2 hPa 0,0 l/m 0,0 km/h (0 Bft) NO 45 -4,7 C -3,4 C 0,0 km/h (0 Bft)
07.03.2014 00:45 -3,5 C 90 % 1024,2 hPa 0,0 l/m 0,0 km/h (0 Bft) NO 45 -4,9 C -3,5 C 0,0 km/h (0 Bft)
07.03.2014 00:50 -3,4 C 90 % 1023,8 hPa 0,0 l/m 0,0 km/h (0 Bft) NO 45 -4,8 C -3,8 C 0,0 km/h (0 Bft)
07.03.2014 00:55 -3,6 C 90 % 1023,8 hPa 0,0 l/m 0,0 km/h (0 Bft) NO 45 -5,0 C -3,7 C 0,0 km/h (0 Bft)
07.03.2014 01:00 -3,5 C 90 % 1023,8 hPa 0,0 l/m 0,0 km/h (0 Bft) NO 45 -4,9 C -3,6 C 0,0 km/h (0 Bft)
07.03.2014 01:05 -3,3 C 90 % 1023,8 hPa 0,0 l/m 0,0 km/h (0 Bft) NO 45 -4,7 C -3,7 C 0,0 km/h (0 Bft)
07.03.2014 01:10 -2,7 C 91 % 1024,1 hPa 0,0 l/m 0,0 km/h (0 Bft) NO 45 -4,0 C -3,4 C 0,0 km/h (0 Bft)
07.03.2014 01:15 -2,7 C 91 % 1024,1 hPa 0,0 l/m 0,3 km/h (0 Bft) NO 45 -4,0 C -3,1 C 2,9 km/h (1 Bft)
07.03.2014 01:20 -1,6 C 91 % 1024,1 hPa 0,0 l/m 1,9 km/h (1 Bft) NO 45 -2,9 C -2,0 C 3,5 km/h (1 Bft)
07.03.2014 01:25 -1,5 C 92 % 1024,1 hPa 0,0 l/m 3,4 km/h (1 Bft) NO 45 -2,6 C -2,1 C 4,2 km/h (1 Bft)
07.03.2014 01:30 -0,9 C 92 % 1024,0 hPa 0,0 l/m 3,1 km/h (1 Bft) NO 45 -2,0 C -1,2 C 2,1 km/h (1 Bft)
07.03.2014 01:34 -0,7 C 92 % 1024,0 hPa 0,0 l/m 2,3 km/h (1 Bft) NO 45 -1,8 C -0,4 C 0,0 km/h (0 Bft)
07.03.2014 01:35 -0,7 C 92 % 1024,0 hPa 0,0 l/m 2,3 km/h (1 Bft) NO 45 -1,8 C -0,4 C 0,0 km/h (0 Bft)
07.03.2014 01:40 -0,6 C 93 % 1024,0 hPa 0,0 l/m 0,8 km/h (0 Bft) NO 45 -1,6 C 0,0 C 0,0 km/h (0 Bft)
07.03.2014 01:45 -0,5 C 93 % 1024,0 hPa 0,0 l/m 0,5 km/h (0 Bft) NO 45 -1,5 C 0,0 C 0,0 km/h (0 Bft)
07.03.2014 01:50 -0,2 C 93 % 1024,0 hPa 0,0 l/m 2,3 km/h (1 Bft) NO 45 -1,2 C 0,1 C 6,8 km/h (2 Bft)
07.03.2014 01:55 -0,1 C 93 % 1024,0 hPa 0,0 l/m 3,9 km/h (1 Bft) NO 45 -1,1 C -0,7 C 7,4 km/h (2 Bft)
07.03.2014 02:00 -0,1 C 94 % 1024,0 hPa 0,0 l/m 3,7 km/h (1 Bft) NO 45 -0,9 C -0,7 C 7,6 km/h (2 Bft)
07.03.2014 02:05 0,0 C 94 % 1024,0 hPa 0,0 l/m 3,1 km/h (1 Bft) NO 45 -0,8 C -0,3 C 4,7 km/h (1 Bft)
07.03.2014 02:10 -0,1 C 94 % 1023,9 hPa 0,0 l/m 1,6 km/h (1 Bft) NO 45 -0,9 C 0,2 C 0,0 km/h (0 Bft)
07.03.2014 02:15 -0,1 C 94 % 1023,9 hPa 0,0 l/m 1,4 km/h (1 Bft) NO 45 -0,9 C 0,2 C 3,7 km/h (1 Bft)
07.03.2014 02:20 -0,1 C 94 % 1023,9 hPa 0,0 l/m 1,4 km/h (1 Bft) NO 45 -0,9 C 0,2 C 0,0 km/h (0 Bft)
07.03.2014 02:25 -0,1 C 94 % 1023,9 hPa 0,0 l/m 1,1 km/h (1 Bft) NO 45 -0,9 C 0,1 C 0,0 km/h (0 Bft)
07.03.2014 02:30 -0,2 C 94 % 1023,7 hPa 0,0 l/m 0,6 km/h (0 Bft) NO 45 -1,0 C 0,1 C 1,6 km/h (1 Bft)
07.03.2014 02:35 -0,2 C 94 % 1023,7 hPa 0,0 l/m 1,3 km/h (1 Bft) NO 45 -1,0 C 0,0 C 3,1 km/h (1 Bft)
07.03.2014 02:40 -0,4 C 94 % 1023,7 hPa 0,0 l/m 1,6 km/h (1 Bft) NO 45 -1,2 C -0,2 C 0,0 km/h (0 Bft)
07.03.2014 02:45 -0,5 C 94 % 1023,7 hPa 0,0 l/m 1,0 km/h (0 Bft) NO 45 -1,3 C -0,3 C 0,0 km/h (0 Bft)
07.03.2014 02:50 -0,7 C 94 % 1023,3 hPa 0,0 l/m 0,2 km/h (0 Bft) NO 45 -1,5 C -0,5 C 0,0 km/h (0 Bft)
07.03.2014 02:55 -0,7 C 94 % 1023,3 hPa 0,0 l/m 0,0 km/h (0 Bft) NO 45 -1,5 C -0,4 C 0,0 km/h (0 Bft)
07.03.2014 03:00 -0,7 C 94 % 1023,3 hPa 0,0 l/m 0,3 km/h (0 Bft) NO 45 -1,5 C -0,5 C 1,6 km/h (1 Bft)
07.03.2014 03:05 -0,9 C 94 % 1023,3 hPa 0,0 l/m 0,2 km/h (0 Bft) NO 45 -1,7 C -0,6 C 0,0 km/h (0 Bft)
07.03.2014 03:10 -1,2 C 93 % 1023,1 hPa 0,0 l/m 1,9 km/h (1 Bft) NO 45 -2,2 C -0,7 C 5,1 km/h (1 Bft)
07.03.2014 03:15 -1,2 C 93 % 1023,1 hPa 0,0 l/m 2,7 km/h (1 Bft) NO 45 -2,2 C -1,2 C 1,9 km/h (1 Bft)
07.03.2014 03:20 -1,3 C 93 % 1023,1 hPa 0,0 l/m 2,9 km/h (1 Bft) NO 45 -2,3 C -1,5 C 1,6 km/h (1 Bft)
07.03.2014 03:25 -1,5 C 93 % 1023,1 hPa 0,0 l/m 2,3 km/h (1 Bft) NO 45 -2,5 C -1,1 C 3,4 km/h (1 Bft)
07.03.2014 03:30 -1,5 C 93 % 1022,8 hPa 0,0 l/m 2,7 km/h (1 Bft) NO 45 -2,5 C -1,7 C 2,3 km/h (1 Bft)
07.03.2014 03:35 -1,5 C 93 % 1022,8 hPa 0,0 l/m 2,6 km/h (1 Bft) NO 45 -2,5 C -1,6 C 0,0 km/h (0 Bft)
07.03.2014 03:40 -1,7 C 93 % 1022,8 hPa 0,0 l/m 1,8 km/h (1 Bft) NO 45 -2,7 C -1,4 C 0,0 km/h (0 Bft)
07.03.2014 03:45 -2,0 C 93 % 1022,8 hPa 0,0 l/m 1,4 km/h (1 Bft) NO 45 -3,0 C -1,6 C 0,0 km/h (0 Bft)
07.03.2014 03:50 -2,4 C 93 % 1022,6 hPa 0,0 l/m 0,3 km/h (0 Bft) NO 45 -3,4 C -2,2 C 0,0 km/h (0 Bft)
07.03.2014 03:55 -2,6 C 93 % 1022,6 hPa 0,0 l/m 0,2 km/h (0 Bft) NO 45 -3,6 C -2,4 C 0,0 km/h (0 Bft)
07.03.2014 04:00 -2,6 C 93 % 1022,6 hPa 0,0 l/m 0,0 km/h (0 Bft) NO 45 -3,6 C -2,6 C 0,0 km/h (0 Bft)
07.03.2014 04:05 -2,6 C 93 % 1022,6 hPa 0,0 l/m 0,0 km/h (0 Bft) NO 45 -3,6 C -2,8 C 0,0 km/h (0 Bft)
07.03.2014 04:10 -2,5 C 93 % 1022,6 hPa 0,0 l/m 0,0 km/h (0 Bft) NO 45 -3,5 C -2,8 C 0,0 km/h (0 Bft)
07.03.2014 04:15 -2,5 C 93 % 1022,6 hPa 0,0 l/m 0,0 km/h (0 Bft) NO 45 -3,5 C -2,7 C 0,0 km/h (0 Bft)
07.03.2014 04:20 -2,4 C 93 % 1022,6 hPa 0,0 l/m 0,0 km/h (0 Bft) NO 45 -3,4 C -2,4 C 0,0 km/h (0 Bft)
07.03.2014 04:25 -2,3 C 93 % 1022,6 hPa 0,0 l/m 0,2 km/h (0 Bft) NO 45 -3,3 C -2,2 C 0,0 km/h (0 Bft)
07.03.2014 04:30 -2,2 C 93 % 1022,7 hPa 0,0 l/m 0,2 km/h (0 Bft) NO 45 -3,2 C -2,2 C 0,0 km/h (0 Bft)
07.03.2014 04:35 -2,2 C 93 % 1022,7 hPa 0,0 l/m 0,2 km/h (0 Bft) NO 45 -3,2 C -2,2 C 0,0 km/h (0 Bft)
07.03.2014 04:40 -2,1 C 93 % 1022,7 hPa 0,0 l/m 0,2 km/h (0 Bft) NO 45 -3,1 C -2,1 C 1,8 km/h (1 Bft)
07.03.2014 04:45 -2,0 C 93 % 1022,7 hPa 0,0 l/m 1,0 km/h (0 Bft) NO 45 -3,0 C -2,0 C 2,4 km/h (1 Bft)
07.03.2014 04:50 -1,8 C 93 % 1022,8 hPa 0,0 l/m 2,3 km/h (1 Bft) NO 45 -2,8 C -1,8 C 0,0 km/h (0 Bft)
07.03.2014 04:55 -1,8 C 93 % 1022,8 hPa 0,0 l/m 1,4 km/h (1 Bft) NO 45 -2,8 C -1,8 C 0,0 km/h (0 Bft)
07.03.2014 05:00 -1,8 C 93 % 1022,8 hPa 0,0 l/m 0,5 km/h (0 Bft) NO 45 -2,8 C -1,7 C 2,7 km/h (1 Bft)
07.03.2014 05:05 -1,7 C 93 % 1022,8 hPa 0,0 l/m 1,1 km/h (1 Bft) NO 45 -2,7 C -1,6 C 5,8 km/h (2 Bft)
07.03.2014 05:10 -1,8 C 93 % 1022,9 hPa 0,0 l/m 1,9 km/h (1 Bft) NO 45 -2,8 C -1,6 C 0,0 km/h (0 Bft)
07.03.2014 05:15 -1,8 C 93 % 1022,9 hPa 0,0 l/m 1,3 km/h (1 Bft) NO 45 -2,8 C -1,6 C 0,0 km/h (0 Bft)
07.03.2014 05:20 -1,8 C 93 % 1022,9 hPa 0,0 l/m 0,2 km/h (0 Bft) NO 45 -2,8 C -1,6 C 0,0 km/h (0 Bft)
07.03.2014 05:25 -1,8 C 93 % 1022,9 hPa 0,0 l/m 0,2 km/h (0 Bft) NO 45 -2,8 C -1,6 C 0,0 km/h (0 Bft)
07.03.2014 05:30 -1,8 C 93 % 1023,1 hPa 0,0 l/m 0,0 km/h (0 Bft) NO 45 -2,8 C -1,6 C 0,0 km/h (0 Bft)
07.03.2014 05:35 -1,8 C 93 % 1023,1 hPa 0,0 l/m 0,0 km/h (0 Bft) NO 45 -2,8 C -1,6 C 0,0 km/h (0 Bft)
07.03.2014 05:40 -1,9 C 93 % 1023,1 hPa 0,0 l/m 0,0 km/h (0 Bft) NO 45 -2,9 C -1,6 C 0,0 km/h (0 Bft)
07.03.2014 05:45 -1,9 C 93 % 1023,1 hPa 0,0 l/m 0,0 km/h (0 Bft) NO 45 -2,9 C -1,7 C 0,0 km/h (0 Bft)
07.03.2014 05:50 -2,0 C 93 % 1023,0 hPa 0,0 l/m 0,0 km/h (0 Bft) NO 45 -3,0 C -1,8 C 0,0 km/h (0 Bft)
07.03.2014 05:55 -2,0 C 93 % 1023,0 hPa 0,0 l/m 0,0 km/h (0 Bft) NO 45 -3,0 C -1,9 C 0,0 km/h (0 Bft)
07.03.2014 06:00 -2,2 C 93 % 1023,0 hPa 0,0 l/m 0,3 km/h (0 Bft) NO 45 -3,2 C -2,0 C 2,7 km/h (1 Bft)
07.03.2014 06:05 -2,4 C 93 % 1023,0 hPa 0,0 l/m 1,3 km/h (1 Bft) NO 45 -3,4 C -2,1 C 2,9 km/h (1 Bft)
07.03.2014 06:10 -2,4 C 93 % 1023,1 hPa 0,0 l/m 1,3 km/h (1 Bft) NO 45 -3,4 C -2,3 C 3,2 km/h (1 Bft)
07.03.2014 06:15 -2,5 C 93 % 1023,1 hPa 0,0 l/m 1,9 km/h (1 Bft) NO 45 -3,5 C -2,2 C 3,9 km/h (1 Bft)
07.03.2014 06:20 -2,7 C 93 % 1023,1 hPa 0,0 l/m 2,7 km/h (1 Bft) NO 45 -3,7 C -3,0 C 2,6 km/h (1 Bft)
07.03.2014 06:25 -2,9 C 93 % 1023,1 hPa 0,0 l/m 1,9 km/h (1 Bft) NO 45 -3,9 C -2,7 C 0,0 km/h (0 Bft)
07.03.2014 06:30 -3,1 C 93 % 1023,2 hPa 0,0 l/m 0,8 km/h (0 Bft) NO 45 -4,1 C -3,1 C 0,0 km/h (0 Bft)
07.03.2014 06:35 -3,2 C 93 % 1023,2 hPa 0,0 l/m 0,0 km/h (0 Bft) NO 45 -4,2 C -3,2 C 0,0 km/h (0 Bft)
07.03.2014 06:40 -3,3 C 93 % 1023,2 hPa 0,0 l/m 0,2 km/h (0 Bft) NO 45 -4,3 C -3,4 C 0,0 km/h (0 Bft)
07.03.2014 06:45 -3,3 C 93 % 1023,2 hPa 0,0 l/m 0,3 km/h (0 Bft) NO 45 -4,3 C -3,6 C 1,9 km/h (1 Bft)
07.03.2014 06:50 -3,2 C 93 % 1023,1 hPa 0,0 l/m 0,3 km/h (0 Bft) NO 45 -4,2 C -3,7 C 0,0 km/h (0 Bft)
07.03.2014 06:55 -3,4 C 93 % 1023,1 hPa 0,0 l/m 0,3 km/h (0 Bft) NO 45 -4,4 C -3,9 C 0,0 km/h (0 Bft)
07.03.2014 07:00 -3,4 C 93 % 1023,1 hPa 0,0 l/m 0,0 km/h (0 Bft) NO 45 -4,4 C -4,0 C 0,0 km/h (0 Bft)
07.03.2014 07:05 -3,4 C 93 % 1023,1 hPa 0,0 l/m 0,0 km/h (0 Bft) NO 45 -4,4 C -4,1 C 0,0 km/h (0 Bft)
07.03.2014 07:10 -3,5 C 93 % 1023,3 hPa 0,0 l/m 0,0 km/h (0 Bft) NO 45 -4,5 C -4,0 C 0,0 km/h (0 Bft)
07.03.2014 07:15 -3,3 C 93 % 1023,3 hPa 0,0 l/m 0,0 km/h (0 Bft) NO 45 -4,3 C -3,9 C 0,0 km/h (0 Bft)
07.03.2014 07:20 -3,1 C 93 % 1023,3 hPa 0,0 l/m 0,0 km/h (0 Bft) NO 45 -4,1 C -3,6 C 0,0 km/h (0 Bft)
07.03.2014 07:25 -3,1 C 93 % 1023,3 hPa 0,0 l/m 0,0 km/h (0 Bft) NO 45 -4,1 C -3,5 C 0,0 km/h (0 Bft)
07.03.2014 07:30 -3,0 C 93 % 1023,5 hPa 0,0 l/m 0,0 km/h (0 Bft) NO 45 -4,0 C -3,3 C 0,0 km/h (0 Bft)
07.03.2014 07:35 -2,9 C 93 % 1023,5 hPa 0,0 l/m 0,8 km/h (0 Bft) NO 45 -3,9 C -3,2 C 3,1 km/h (1 Bft)
07.03.2014 07:40 -2,8 C 93 % 1023,5 hPa 0,0 l/m 1,4 km/h (1 Bft) NO 45 -3,8 C -3,1 C 0,0 km/h (0 Bft)
07.03.2014 07:45 -2,8 C 93 % 1023,5 hPa 0,0 l/m 1,3 km/h (1 Bft) NO 45 -3,8 C -3,0 C 2,6 km/h (1 Bft)
07.03.2014 07:50 -2,9 C 93 % 1023,6 hPa 0,0 l/m 0,3 km/h (0 Bft) NO 45 -3,9 C -3,0 C 0,0 km/h (0 Bft)
07.03.2014 07:55 -2,8 C 93 % 1023,6 hPa 0,0 l/m 0,3 km/h (0 Bft) NO 45 -3,8 C -3,0 C 0,0 km/h (0 Bft)
07.03.2014 08:00 -2,8 C 93 % 1023,6 hPa 0,0 l/m 0,0 km/h (0 Bft) NO 45 -3,8 C -2,8 C 0,0 km/h (0 Bft)
07.03.2014 08:05 -2,6 C 93 % 1023,6 hPa 0,0 l/m 0,0 km/h (0 Bft) NO 45 -3,6 C -2,7 C 0,0 km/h (0 Bft)
07.03.2014 08:10 -2,5 C 93 % 1023,8 hPa 0,0 l/m 0,0 km/h (0 Bft) NO 45 -3,5 C -1,3 C 0,0 km/h (0 Bft)
07.03.2014 08:15 -2,4 C 93 % 1023,8 hPa 0,0 l/m 0,0 km/h (0 Bft) NO 45 -3,4 C -0,4 C 0,0 km/h (0 Bft)
07.03.2014 08:20 -2,3 C 93 % 1023,8 hPa 0,0 l/m 0,0 km/h (0 Bft) NO 45 -3,3 C 1,5 C 0,0 km/h (0 Bft)
07.03.2014 08:25 -2,3 C 93 % 1023,8 hPa 0,0 l/m 0,0 km/h (0 Bft) NO 45 -3,3 C 2,8 C 0,0 km/h (0 Bft)
07.03.2014 08:30 -1,9 C 93 % 1023,9 hPa 0,0 l/m 0,0 km/h (0 Bft) NO 45 -2,9 C 4,1 C 0,0 km/h (0 Bft)
07.03.2014 08:35 -1,8 C 93 % 1023,9 hPa 0,0 l/m 0,0 km/h (0 Bft) NO 45 -2,8 C 4,7 C 0,0 km/h (0 Bft)
07.03.2014 08:40 -1,7 C 93 % 1023,9 hPa 0,0 l/m 0,0 km/h (0 Bft) NO 45 -2,7 C 5,7 C 0,0 km/h (0 Bft)
07.03.2014 08:45 -1,3 C 93 % 1023,9 hPa 0,0 l/m 0,0 km/h (0 Bft) NO 45 -2,3 C 6,1 C 0,0 km/h (0 Bft)
07.03.2014 08:50 -0,8 C 93 % 1023,9 hPa 0,0 l/m 0,0 km/h (0 Bft) NO 45 -1,8 C 6,6 C 0,0 km/h (0 Bft)
07.03.2014 08:55 -0,6 C 94 % 1023,9 hPa 0,0 l/m 0,5 km/h (0 Bft) NO 45 -1,4 C 6,8 C 0,0 km/h (0 Bft)
07.03.2014 09:00 -0,4 C 94 % 1023,9 hPa 0,0 l/m 0,6 km/h (0 Bft) NO 45 -1,2 C 7,0 C 3,5 km/h (1 Bft)
07.03.2014 09:05 -0,2 C 94 % 1023,9 hPa 0,0 l/m 0,6 km/h (0 Bft) NO 45 -1,0 C 7,1 C 1,8 km/h (1 Bft)
07.03.2014 09:10 0,4 C 94 % 1024,2 hPa 0,0 l/m 1,3 km/h (1 Bft) NO 45 -0,5 C 7,4 C 0,0 km/h (0 Bft)
07.03.2014 09:15 1,3 C 94 % 1024,2 hPa 0,0 l/m 1,0 km/h (0 Bft) N-NO 22 0,4 C 8,0 C 0,0 km/h (0 Bft)
07.03.2014 09:20 3,1 C 92 % 1024,2 hPa 0,0 l/m 0,6 km/h (0 Bft) O-SO 112 1,9 C 8,2 C 0,0 km/h (0 Bft)
07.03.2014 09:25 3,9 C 90 % 1024,2 hPa 0,0 l/m 0,6 km/h (0 Bft) O 90 2,4 C 8,7 C 0,0 km/h (0 Bft)
07.03.2014 09:30 4,3 C 87 % 1024,2 hPa 0,0 l/m 0,3 km/h (0 Bft) O-NO 67 2,3 C 9,9 C 3,1 km/h (1 Bft)
07.03.2014 09:35 4,5 C 86 % 1024,2 hPa 0,0 l/m 1,0 km/h (0 Bft) S-SO 157 2,4 C 9,7 C 1,8 km/h (1 Bft)
07.03.2014 09:40 4,4 C 85 % 1024,2 hPa 0,0 l/m 2,7 km/h (1 Bft) O-SO 112 2,1 C 9,4 C 6,9 km/h (2 Bft)
07.03.2014 09:45 4,8 C 84 % 1024,2 hPa 0,0 l/m 3,5 km/h (1 Bft) S-SO 157 2,3 C 8,8 C 5,6 km/h (1 Bft)
07.03.2014 09:50 5,4 C 82 % 1024,6 hPa 0,0 l/m 4,7 km/h (1 Bft) SO 135 2,6 C 7,6 C 3,9 km/h (1 Bft)
07.03.2014 09:55 5,6 C 80 % 1024,6 hPa 0,0 l/m 4,3 km/h (1 Bft) S-SW 202 2,4 C 7,3 C 3,2 km/h (1 Bft)
07.03.2014 10:00 5,6 C 78 % 1024,6 hPa 0,0 l/m 4,7 km/h (1 Bft) SW 225 2,1 C 6,3 C 8,2 km/h (2 Bft)
07.03.2014 10:05 5,4 C 78 % 1024,6 hPa 0,0 l/m 4,8 km/h (1 Bft) SO 135 1,9 C 5,9 C 7,2 km/h (2 Bft)
07.03.2014 10:10 5,6 C 77 % 1024,6 hPa 0,0 l/m 5,6 km/h (1 Bft) S 180 1,9 C 5,2 C 9,7 km/h (2 Bft)
07.03.2014 10:15 5,4 C 78 % 1024,6 hPa 0,0 l/m 5,8 km/h (2 Bft) O-SO 112 1,9 C 5,2 C 7,4 km/h (2 Bft)
07.03.2014 10:20 6,8 C 72 % 1024,6 hPa 0,0 l/m 5,5 km/h (1 Bft) O-SO 112 2,1 C 5,9 C 7,1 km/h (2 Bft)
07.03.2014 10:25 7,1 C 69 % 1024,6 hPa 0,0 l/m 4,8 km/h (1 Bft) S-SO 157 1,8 C 6,8 C 8,4 km/h (2 Bft)
07.03.2014 10:30 7,7 C 67 % 1024,6 hPa 0,0 l/m 4,7 km/h (1 Bft) S-SO 157 2,0 C 8,3 C 8,0 km/h (2 Bft)
07.03.2014 10:35 7,7 C 66 % 1024,6 hPa 0,0 l/m 5,3 km/h (1 Bft) S 180 1,8 C 8,5 C 7,1 km/h (2 Bft)
07.03.2014 10:40 8,2 C 65 % 1024,6 hPa 0,0 l/m 6,8 km/h (2 Bft) S 180 2,0 C 8,7 C 11,4 km/h (2 Bft)
07.03.2014 10:45 8,6 C 62 % 1024,6 hPa 0,0 l/m 6,4 km/h (2 Bft) O 90 1,7 C 9,7 C 7,6 km/h (2 Bft)
07.03.2014 10:50 8,7 C 60 % 1024,7 hPa 0,0 l/m 6,3 km/h (2 Bft) W-SW 247 1,4 C 10,3 C 11,9 km/h (2 Bft)
07.03.2014 10:55 8,9 C 60 % 1024,7 hPa 0,0 l/m 6,6 km/h (2 Bft) S 180 1,6 C 10,1 C 7,6 km/h (2 Bft)
07.03.2014 11:00 8,8 C 59 % 1024,7 hPa 0,0 l/m 6,9 km/h (2 Bft) S 180 1,2 C 9,7 C 7,2 km/h (2 Bft)
07.03.2014 11:05 9,1 C 58 % 1024,7 hPa 0,0 l/m 6,4 km/h (2 Bft) S-SW 202 1,3 C 10,3 C 6,9 km/h (2 Bft)
07.03.2014 11:10 9,0 C 55 % 1025,0 hPa 0,0 l/m 7,2 km/h (2 Bft) S 180 0,5 C 9,6 C 10,3 km/h (2 Bft)
07.03.2014 11:15 9,7 C 60 % 1025,0 hPa 0,0 l/m 7,4 km/h (2 Bft) S 180 2,3 C 9,5 C 11,4 km/h (2 Bft)
07.03.2014 11:20 9,8 C 55 % 1025,0 hPa 0,0 l/m 7,2 km/h (2 Bft) S-SW 202 1,2 C 10,0 C 9,5 km/h (2 Bft)
07.03.2014 11:25 9,6 C 54 % 1025,0 hPa 0,0 l/m 7,9 km/h (2 Bft) S-SW 202 0,8 C 9,3 C 10,9 km/h (2 Bft)
07.03.2014 11:28 10,0 C 53 % 1024,8 hPa 0,0 l/m 9,3 km/h (2 Bft) S 180 0,9 C 7,9 C 15,3 km/h (3 Bft)
07.03.2014 11:30 10,0 C 53 % 1024,8 hPa 0,0 l/m 9,3 km/h (2 Bft) S 180 0,9 C 7,9 C 12,1 km/h (2 Bft)
07.03.2014 11:35 10,3 C 53 % 1024,8 hPa 0,0 l/m 9,0 km/h (2 Bft) S-SW 202 1,1 C 8,3 C 12,7 km/h (3 Bft)
07.03.2014 11:40 10,0 C 50 % 1024,8 hPa 0,0 l/m 8,4 km/h (2 Bft) S-SW 202 0,1 C 9,0 C 9,8 km/h (2 Bft)
07.03.2014 11:45 10,0 C 51 % 1024,8 hPa 0,0 l/m 8,7 km/h (2 Bft) S 180 0,3 C 8,8 C 13,7 km/h (3 Bft)
07.03.2014 11:50 10,2 C 49 % 1024,9 hPa 0,0 l/m 8,2 km/h (2 Bft) W-SW 247 -0,0 C 9,5 C 7,9 km/h (2 Bft)
07.03.2014 11:55 10,3 C 49 % 1024,9 hPa 0,0 l/m 8,0 km/h (2 Bft) S 180 0,1 C 9,8 C 9,0 km/h (2 Bft)
07.03.2014 12:00 10,6 C 49 % 1024,9 hPa 0,0 l/m 7,9 km/h (2 Bft) W 270 0,3 C 10,0 C 15,6 km/h (3 Bft)
07.03.2014 12:05 11,0 C 48 % 1024,9 hPa 0,0 l/m 8,2 km/h (2 Bft) S 180 0,4 C 9,9 C 7,1 km/h (2 Bft)
07.03.2014 12:10 11,7 C 49 % 1025,2 hPa 0,0 l/m 6,3 km/h (2 Bft) S 180 1,3 C 12,0 C 6,4 km/h (2 Bft)
07.03.2014 12:15 11,4 C 49 % 1025,2 hPa 0,0 l/m 5,8 km/h (2 Bft) S 180 1,1 C 12,6 C 6,6 km/h (2 Bft)
07.03.2014 12:20 11,2 C 48 % 1025,2 hPa 0,0 l/m 6,4 km/h (2 Bft) S-SW 202 0,6 C 12,8 C 9,3 km/h (2 Bft)
07.03.2014 12:25 11,2 C 48 % 1025,2 hPa 0,0 l/m 6,4 km/h (2 Bft) S 180 0,6 C 12,8 C 6,4 km/h (2 Bft)
07.03.2014 12:30 11,5 C 49 % 1025,1 hPa 0,0 l/m 6,8 km/h (2 Bft) W-SW 247 1,2 C 12,2 C 6,1 km/h (2 Bft)
07.03.2014 12:35 11,5 C 49 % 1025,1 hPa 0,0 l/m 6,6 km/h (2 Bft) S-SW 202 1,2 C 12,8 C 8,0 km/h (2 Bft)
07.03.2014 12:40 11,4 C 48 % 1025,1 hPa 0,0 l/m 6,4 km/h (2 Bft) S-SW 202 0,8 C 12,9 C 8,2 km/h (2 Bft)
07.03.2014 12:45 11,7 C 51 % 1025,1 hPa 0,0 l/m 6,1 km/h (2 Bft) S 180 1,9 C 13,1 C 5,0 km/h (1 Bft)
07.03.2014 12:50 12,0 C 49 % 1025,2 hPa 0,0 l/m 4,7 km/h (1 Bft) S 180 1,6 C 14,1 C 7,1 km/h (2 Bft)
07.03.2014 12:55 11,7 C 49 % 1025,2 hPa 0,0 l/m 5,3 km/h (1 Bft) S 180 1,3 C 14,2 C 7,6 km/h (2 Bft)
07.03.2014 13:00 11,7 C 49 % 1025,2 hPa 0,0 l/m 6,4 km/h (2 Bft) S-SW 202 1,3 C 13,7 C 0,0 km/h (0 Bft)
07.03.2014 13:05 11,8 C 48 % 1025,2 hPa 0,0 l/m 6,4 km/h (2 Bft) S-SO 157 1,2 C 13,9 C 7,1 km/h (2 Bft)
07.03.2014 13:10 11,8 C 48 % 1025,1 hPa 0,0 l/m 5,6 km/h (1 Bft) S 180 1,2 C 14,1 C 5,3 km/h (1 Bft)
07.03.2014 13:15 12,3 C 49 % 1025,1 hPa 0,0 l/m 5,5 km/h (1 Bft) SW 225 1,9 C 14,3 C 9,8 km/h (2 Bft)
07.03.2014 13:20 12,2 C 49 % 1025,1 hPa 0,0 l/m 5,1 km/h (1 Bft) S-SO 157 1,8 C 14,4 C 4,2 km/h (1 Bft)
07.03.2014 13:25 12,3 C 47 % 1025,1 hPa 0,0 l/m 5,6 km/h (1 Bft) W-SW 247 1,3 C 14,7 C 7,2 km/h (2 Bft)
07.03.2014 13:30 12,3 C 46 % 1025,2 hPa 0,0 l/m 4,7 km/h (1 Bft) O 90 1,0 C 15,3 C 6,1 km/h (2 Bft)
07.03.2014 13:35 12,5 C 48 % 1025,2 hPa 0,0 l/m 4,3 km/h (1 Bft) W-SW 247 1,8 C 15,4 C 5,8 km/h (2 Bft)
07.03.2014 13:40 12,2 C 46 % 1025,2 hPa 0,0 l/m 5,3 km/h (1 Bft) S 180 0,9 C 15,1 C 4,5 km/h (1 Bft)
07.03.2014 13:45 12,9 C 47 % 1025,2 hPa 0,0 l/m 5,3 km/h (1 Bft) S 180 1,9 C 15,3 C 7,1 km/h (2 Bft)
07.03.2014 13:50 13,0 C 45 % 1025,0 hPa 0,0 l/m 3,4 km/h (1 Bft) S-SW 202 1,4 C 15,9 C 3,5 km/h (1 Bft)
07.03.2014 13:55 13,2 C 44 % 1025,0 hPa 0,0 l/m 4,2 km/h (1 Bft) S 180 1,2 C 16,1 C 9,5 km/h (2 Bft)
07.03.2014 14:00 12,9 C 44 % 1025,0 hPa 0,0 l/m 5,0 km/h (1 Bft) O-SO 112 1,0 C 15,8 C 4,8 km/h (1 Bft)
07.03.2014 14:05 12,8 C 44 % 1025,0 hPa 0,0 l/m 5,5 km/h (1 Bft) W-SW 247 0,9 C 15,8 C 6,9 km/h (2 Bft)
07.03.2014 14:10 12,8 C 45 % 1025,2 hPa 0,0 l/m 5,8 km/h (2 Bft) S-SO 157 1,2 C 15,5 C 5,6 km/h (1 Bft)
07.03.2014 14:15 12,6 C 44 % 1025,2 hPa 0,0 l/m 5,6 km/h (1 Bft) W-SW 247 0,7 C 15,5 C 3,4 km/h (1 Bft)
07.03.2014 14:20 13,0 C 43 % 1025,2 hPa 0,0 l/m 3,5 km/h (1 Bft) NO 45 0,7 C 16,3 C 4,5 km/h (1 Bft)
07.03.2014 14:25 13,0 C 43 % 1025,2 hPa 0,0 l/m 3,5 km/h (1 Bft) O 90 0,7 C 16,7 C 7,1 km/h (2 Bft)
07.03.2014 14:30 13,4 C 44 % 1025,1 hPa 0,0 l/m 4,8 km/h (1 Bft) SO 135 1,4 C 16,6 C 4,5 km/h (1 Bft)
07.03.2014 14:35 13,0 C 43 % 1025,1 hPa 0,0 l/m 6,1 km/h (2 Bft) S-SW 202 0,7 C 16,2 C 6,8 km/h (2 Bft)
07.03.2014 14:40 13,2 C 43 % 1025,1 hPa 0,0 l/m 5,5 km/h (1 Bft) W-SW 247 0,9 C 16,3 C 7,1 km/h (2 Bft)
07.03.2014 14:45 13,5 C 42 % 1025,1 hPa 0,0 l/m 4,7 km/h (1 Bft) S-SW 202 0,8 C 16,5 C 7,1 km/h (2 Bft)
07.03.2014 14:50 13,2 C 42 % 1024,8 hPa 0,0 l/m 5,1 km/h (1 Bft) S-SW 202 0,6 C 16,6 C 5,3 km/h (1 Bft)
07.03.2014 14:55 13,5 C 42 % 1024,8 hPa 0,0 l/m 5,3 km/h (1 Bft) W 270 0,8 C 16,5 C 7,2 km/h (2 Bft)
07.03.2014 15:00 12,9 C 41 % 1024,8 hPa 0,0 l/m 6,0 km/h (2 Bft) N-NW 337 -0,0 C 15,9 C 7,1 km/h (2 Bft)
07.03.2014 15:05 12,8 C 42 % 1024,8 hPa 0,0 l/m 6,1 km/h (2 Bft) SW 225 0,2 C 15,7 C 6,0 km/h (2 Bft)
07.03.2014 15:10 13,2 C 40 % 1024,9 hPa 0,0 l/m 5,1 km/h (1 Bft) W-SW 247 -0,1 C 15,9 C 8,2 km/h (2 Bft)
07.03.2014 15:15 12,9 C 41 % 1024,9 hPa 0,0 l/m 5,1 km/h (1 Bft) S 180 -0,0 C 16,0 C 6,4 km/h (2 Bft)
07.03.2014 15:20 12,9 C 41 % 1024,9 hPa 0,0 l/m 5,8 km/h (2 Bft) S 180 -0,0 C 16,0 C 6,9 km/h (2 Bft)
07.03.2014 15:25 12,9 C 41 % 1024,9 hPa 0,0 l/m 5,6 km/h (1 Bft) S-SW 202 -0,0 C 16,0 C 6,6 km/h (2 Bft)
07.03.2014 15:30 12,7 C 41 % 1024,8 hPa 0,0 l/m 5,6 km/h (1 Bft) NW 315 -0,2 C 15,8 C 7,7 km/h (2 Bft)
07.03.2014 15:35 12,6 C 42 % 1024,8 hPa 0,0 l/m 5,6 km/h (1 Bft) S 180 0,0 C 15,7 C 5,1 km/h (1 Bft)
07.03.2014 15:40 12,7 C 42 % 1024,8 hPa 0,0 l/m 5,5 km/h (1 Bft) S 180 0,1 C 15,8 C 9,5 km/h (2 Bft)
07.03.2014 15:45 12,3 C 42 % 1024,8 hPa 0,0 l/m 6,4 km/h (2 Bft) W-SW 247 -0,2 C 15,6 C 7,4 km/h (2 Bft)
07.03.2014 15:50 12,2 C 43 % 1024,6 hPa 0,0 l/m 6,3 km/h (2 Bft) W-NW 292 -0,0 C 15,4 C 3,4 km/h (1 Bft)
07.03.2014 15:55 11,9 C 43 % 1024,6 hPa 0,0 l/m 5,0 km/h (1 Bft) S 180 -0,3 C 15,8 C 6,4 km/h (2 Bft)
07.03.2014 16:00 11,5 C 43 % 1024,6 hPa 0,0 l/m 5,0 km/h (1 Bft) W-NW 292 -0,6 C 15,8 C 5,8 km/h (2 Bft)
07.03.2014 16:05 11,1 C 44 % 1024,6 hPa 0,0 l/m 4,3 km/h (1 Bft) W 270 -0,7 C 15,8 C 0,0 km/h (0 Bft)
07.03.2014 16:10 10,6 C 48 % 1025,3 hPa 0,0 l/m 2,4 km/h (1 Bft) S-SW 202 0,1 C 16,7 C 8,2 km/h (2 Bft)
07.03.2014 16:15 10,6 C 48 % 1025,3 hPa 0,0 l/m 2,9 km/h (1 Bft) NO 45 0,1 C 16,3 C 4,0 km/h (1 Bft)
07.03.2014 16:20 10,0 C 55 % 1025,3 hPa 0,0 l/m 4,0 km/h (1 Bft) N 360 1,4 C 16,3 C 3,1 km/h (1 Bft)
07.03.2014 16:25 9,8 C 56 % 1025,3 hPa 0,0 l/m 3,4 km/h (1 Bft) W-NW 292 1,4 C 16,0 C 6,8 km/h (2 Bft)
07.03.2014 16:28 9,7 C 59 % 1024,2 hPa 0,0 l/m 4,7 km/h (1 Bft) N-NW 337 2,1 C 15,1 C 6,4 km/h (2 Bft)
07.03.2014 16:30 9,7 C 59 % 1024,2 hPa 0,0 l/m 4,7 km/h (1 Bft) N-NW 337 2,1 C 15,1 C 6,4 km/h (2 Bft)
07.03.2014 16:35 9,6 C 59 % 1024,2 hPa 0,0 l/m 5,3 km/h (1 Bft) W 270 2,0 C 14,7 C 7,2 km/h (2 Bft)
07.03.2014 16:40 9,5 C 59 % 1024,2 hPa 0,0 l/m 5,5 km/h (1 Bft) N-NW 337 1,9 C 14,0 C 6,8 km/h (2 Bft)
07.03.2014 16:45 9,2 C 61 % 1024,2 hPa 0,0 l/m 5,3 km/h (1 Bft) N-NO 22 2,1 C 13,8 C 7,1 km/h (2 Bft)
07.03.2014 16:50 8,7 C 61 % 1024,4 hPa 0,0 l/m 5,0 km/h (1 Bft) N-NW 337 1,6 C 13,4 C 5,6 km/h (1 Bft)
07.03.2014 16:55 8,6 C 61 % 1024,4 hPa 0,0 l/m 5,1 km/h (1 Bft) N-NW 337 1,5 C 13,2 C 6,6 km/h (2 Bft)
07.03.2014 17:00 8,3 C 62 % 1024,4 hPa 0,0 l/m 4,0 km/h (1 Bft) N-NW 337 1,5 C 12,9 C 4,3 km/h (1 Bft)
07.03.2014 17:05 8,4 C 63 % 1024,4 hPa 0,0 l/m 3,9 km/h (1 Bft) N 360 1,8 C 12,9 C 7,2 km/h (2 Bft)
07.03.2014 17:10 7,9 C 64 % 1024,3 hPa 0,0 l/m 4,3 km/h (1 Bft) N 360 1,5 C 12,6 C 5,1 km/h (1 Bft)
07.03.2014 17:15 7,7 C 65 % 1024,3 hPa 0,0 l/m 4,7 km/h (1 Bft) N 360 1,5 C 12,3 C 6,8 km/h (2 Bft)
07.03.2014 17:20 7,4 C 65 % 1024,3 hPa 0,0 l/m 3,9 km/h (1 Bft) N-NO 22 1,3 C 11,9 C 2,4 km/h (1 Bft)
07.03.2014 17:25 7,2 C 66 % 1024,3 hPa 0,0 l/m 2,7 km/h (1 Bft) NW 315 1,3 C 11,8 C 1,8 km/h (1 Bft)
07.03.2014 17:30 7,0 C 67 % 1024,1 hPa 0,0 l/m 2,1 km/h (1 Bft) NO 45 1,3 C 11,5 C 3,4 km/h (1 Bft)
07.03.2014 17:35 6,7 C 67 % 1024,1 hPa 0,0 l/m 2,7 km/h (1 Bft) NO 45 1,0 C 11,2 C 2,4 km/h (1 Bft)
07.03.2014 17:40 6,5 C 68 % 1024,1 hPa 0,0 l/m 2,3 km/h (1 Bft) O 90 1,0 C 10,7 C 0,0 km/h (0 Bft)
07.03.2014 17:45 6,6 C 69 % 1024,1 hPa 0,0 l/m 1,3 km/h (1 Bft) O-NO 67 1,3 C 10,5 C 1,9 km/h (1 Bft)
07.03.2014 17:50 6,4 C 70 % 1024,3 hPa 0,0 l/m 1,4 km/h (1 Bft) O-NO 67 1,3 C 9,8 C 1,9 km/h (1 Bft)
07.03.2014 17:55 6,4 C 70 % 1024,3 hPa 0,0 l/m 2,3 km/h (1 Bft) NO 45 1,3 C 9,3 C 2,7 km/h (1 Bft)
07.03.2014 18:00 6,1 C 70 % 1024,3 hPa 0,0 l/m 2,9 km/h (1 Bft) O-NO 67 1,0 C 8,4 C 4,8 km/h (1 Bft)
07.03.2014 18:05 6,2 C 71 % 1024,3 hPa 0,0 l/m 3,2 km/h (1 Bft) O-NO 67 1,3 C 7,4 C 6,1 km/h (2 Bft)
07.03.2014 18:10 6,0 C 72 % 1024,6 hPa 0,0 l/m 4,5 km/h (1 Bft) O-NO 67 1,3 C 6,1 C 5,6 km/h (1 Bft)
07.03.2014 18:15 5,8 C 74 % 1024,6 hPa 0,0 l/m 5,5 km/h (1 Bft) NO 45 1,5 C 5,2 C 6,3 km/h (2 Bft)
07.03.2014 18:20 5,5 C 74 % 1024,6 hPa 0,0 l/m 5,8 km/h (2 Bft) O 90 1,2 C 4,6 C 6,4 km/h (2 Bft)
07.03.2014 18:25 5,5 C 75 % 1024,6 hPa 0,0 l/m 6,0 km/h (2 Bft) NO 45 1,4 C 4,2 C 6,1 km/h (2 Bft)
07.03.2014 18:30 5,2 C 75 % 1024,2 hPa 0,0 l/m 5,1 km/h (1 Bft) NO 45 1,1 C 4,2 C 2,9 km/h (1 Bft)
07.03.2014 18:35 5,0 C 75 % 1024,2 hPa 0,0 l/m 2,9 km/h (1 Bft) NO 45 0,9 C 4,5 C 0,0 km/h (0 Bft)
07.03.2014 18:40 4,6 C 76 % 1024,2 hPa 0,0 l/m 1,0 km/h (0 Bft) O 90 0,7 C 3,6 C 4,7 km/h (1 Bft)
07.03.2014 18:45 4,4 C 77 % 1024,2 hPa 0,0 l/m 2,4 km/h (1 Bft) NO 45 0,7 C 3,4 C 5,3 km/h (1 Bft)
07.03.2014 18:50 4,3 C 78 % 1025,1 hPa 0,0 l/m 2,9 km/h (1 Bft) O 90 0,8 C 2,8 C 0,0 km/h (0 Bft)
07.03.2014 18:55 4,1 C 79 % 1025,1 hPa 0,0 l/m 1,4 km/h (1 Bft) O-SO 112 0,8 C 2,6 C 0,0 km/h (0 Bft)
07.03.2014 19:00 3,7 C 80 % 1025,1 hPa 0,0 l/m 0,3 km/h (0 Bft) O 90 0,6 C 2,2 C 0,0 km/h (0 Bft)
07.03.2014 19:05 3,9 C 81 % 1025,1 hPa 0,0 l/m 0,6 km/h (0 Bft) NO 45 0,9 C 2,0 C 4,0 km/h (1 Bft)
07.03.2014 19:10 3,4 C 80 % 1024,9 hPa 0,0 l/m 2,1 km/h (1 Bft) NO 45 0,3 C 1,8 C 4,2 km/h (1 Bft)
07.03.2014 19:15 3,1 C 81 % 1024,9 hPa 0,0 l/m 3,1 km/h (1 Bft) NO 45 0,2 C 1,6 C 4,2 km/h (1 Bft)
07.03.2014 19:20 2,8 C 83 % 1024,9 hPa 0,0 l/m 3,4 km/h (1 Bft) O-NO 67 0,2 C 1,2 C 5,0 km/h (1 Bft)
07.03.2014 19:25 2,7 C 83 % 1024,9 hPa 0,0 l/m 2,6 km/h (1 Bft) O 90 0,1 C 1,6 C 0,0 km/h (0 Bft)
07.03.2014 19:30 2,0 C 83 % 1024,9 hPa 0,0 l/m 1,0 km/h (0 Bft) NO 45 -0,6 C 1,2 C 3,9 km/h (1 Bft)
07.03.2014 19:35 2,2 C 84 % 1024,9 hPa 0,0 l/m 0,5 km/h (0 Bft) SO 135 -0,2 C 1,2 C 0,0 km/h (0 Bft)
07.03.2014 19:40 2,2 C 84 % 1024,9 hPa 0,0 l/m 0,6 km/h (0 Bft) O-SO 112 -0,2 C 1,1 C 2,6 km/h (1 Bft)
07.03.2014 19:45 2,0 C 85 % 1024,9 hPa 0,0 l/m 1,3 km/h (1 Bft) N-NO 22 -0,3 C 1,0 C 4,0 km/h (1 Bft)
07.03.2014 19:50 2,1 C 85 % 1025,1 hPa 0,0 l/m 2,4 km/h (1 Bft) O 90 -0,2 C 1,1 C 4,5 km/h (1 Bft)
07.03.2014 19:55 1,9 C 86 % 1025,1 hPa 0,0 l/m 3,2 km/h (1 Bft) O-SO 112 -0,2 C 0,6 C 3,7 km/h (1 Bft)
07.03.2014 20:00 1,9 C 86 % 1025,1 hPa 0,0 l/m 3,7 km/h (1 Bft) O-SO 112 -0,2 C 0,2 C 3,4 km/h (1 Bft)
07.03.2014 20:05 1,8 C 86 % 1025,1 hPa 0,0 l/m 3,4 km/h (1 Bft) O 90 -0,3 C 0,3 C 4,8 km/h (1 Bft)
07.03.2014 20:10 1,5 C 86 % 1025,2 hPa 0,0 l/m 3,4 km/h (1 Bft) NO 45 -0,6 C 0,4 C 1,8 km/h (1 Bft)
07.03.2014 20:15 1,4 C 86 % 1025,2 hPa 0,0 l/m 3,2 km/h (1 Bft) O-SO 112 -0,7 C 0,5 C 0,0 km/h (0 Bft)
07.03.2014 20:20 1,1 C 87 % 1025,2 hPa 0,0 l/m 1,8 km/h (1 Bft) NO 45 -0,8 C 0,9 C 3,1 km/h (1 Bft)
07.03.2014 20:25 1,1 C 87 % 1025,2 hPa 0,0 l/m 1,6 km/h (1 Bft) O 90 -0,8 C 0,7 C 3,2 km/h (1 Bft)
07.03.2014 20:30 1,3 C 87 % 1025,5 hPa 0,0 l/m 2,9 km/h (1 Bft) O 90 -0,6 C 0,3 C 5,6 km/h (1 Bft)
07.03.2014 20:35 1,1 C 87 % 1025,5 hPa 0,0 l/m 3,9 km/h (1 Bft) O 90 -0,8 C -0,3 C 3,5 km/h (1 Bft)
07.03.2014 20:40 1,0 C 88 % 1025,5 hPa 0,0 l/m 4,3 km/h (1 Bft) O-NO 67 -0,8 C -0,7 C 6,4 km/h (2 Bft)
07.03.2014 20:45 1,1 C 88 % 1025,5 hPa 0,0 l/m 4,7 km/h (1 Bft) O 90 -0,7 C -0,8 C 5,8 km/h (2 Bft)
07.03.2014 20:50 1,2 C 88 % 1025,4 hPa 0,0 l/m 4,0 km/h (1 Bft) O 90 -0,6 C -0,4 C 3,7 km/h (1 Bft)
07.03.2014 20:55 1,3 C 88 % 1025,4 hPa 0,0 l/m 3,2 km/h (1 Bft) O-NO 67 -0,5 C 0,1 C 2,4 km/h (1 Bft)
07.03.2014 21:00 0,7 C 88 % 1025,4 hPa 0,0 l/m 2,4 km/h (1 Bft) NO 45 -1,1 C 0,6 C 6,1 km/h (2 Bft)
07.03.2014 21:05 0,6 C 89 % 1025,4 hPa 0,0 l/m 1,4 km/h (1 Bft) O 90 -1,0 C 0,5 C 0,0 km/h (0 Bft)
07.03.2014 21:10 0,4 C 88 % 1025,2 hPa 0,0 l/m 1,0 km/h (0 Bft) S-SO 157 -1,3 C 0,3 C 0,0 km/h (0 Bft)
07.03.2014 21:15 0,3 C 89 % 1025,2 hPa 0,0 l/m 0,5 km/h (0 Bft) N 360 -1,3 C 0,0 C 2,3 km/h (1 Bft)
07.03.2014 21:20 0,0 C 88 % 1025,2 hPa 0,0 l/m 0,2 km/h (0 Bft) N 360 -1,7 C -0,2 C 0,0 km/h (0 Bft)
07.03.2014 21:25 -0,1 C 88 % 1025,2 hPa 0,0 l/m 0,2 km/h (0 Bft) N-NO 22 -1,8 C -0,4 C 0,0 km/h (0 Bft)
07.03.2014 21:29 -0,3 C 88 % 1025,4 hPa 0,0 l/m 0,2 km/h (0 Bft) NO 45 -2,0 C -0,4 C 0,0 km/h (0 Bft)
07.03.2014 21:30 -0,3 C 88 % 1025,4 hPa 0,0 l/m 0,2 km/h (0 Bft) NO 45 -2,0 C -0,4 C 0,0 km/h (0 Bft)
07.03.2014 21:35 0,0 C 89 % 1025,4 hPa 0,0 l/m 0,6 km/h (0 Bft) O 90 -1,6 C -0,4 C 2,6 km/h (1 Bft)
07.03.2014 21:40 0,0 C 89 % 1025,4 hPa 0,0 l/m 1,1 km/h (1 Bft) O-SO 112 -1,6 C -0,3 C 0,0 km/h (0 Bft)
07.03.2014 21:45 -0,4 C 89 % 1025,4 hPa 0,0 l/m 0,8 km/h (0 Bft) O-SO 112 -2,0 C -0,5 C 0,0 km/h (0 Bft)
07.03.2014 21:50 -0,7 C 88 % 1025,1 hPa 0,0 l/m 0,0 km/h (0 Bft) O-SO 112 -2,4 C -0,8 C 0,0 km/h (0 Bft)
07.03.2014 21:55 -0,5 C 89 % 1025,1 hPa 0,0 l/m 0,0 km/h (0 Bft) N 360 -2,1 C -0,9 C 0,0 km/h (0 Bft)
07.03.2014 22:00 -0,7 C 89 % 1025,1 hPa 0,0 l/m 0,0 km/h (0 Bft) N-NO 22 -2,3 C -1,0 C 0,0 km/h (0 Bft)
07.03.2014 22:05 -0,4 C 89 % 1025,1 hPa 0,0 l/m 0,2 km/h (0 Bft) O-NO 67 -2,0 C -1,0 C 3,2 km/h (1 Bft)
07.03.2014 22:10 -0,2 C 89 % 1025,0 hPa 0,0 l/m 0,5 km/h (0 Bft) O 90 -1,8 C -0,9 C 0,0 km/h (0 Bft)
07.03.2014 22:15 -0,5 C 89 % 1025,0 hPa 0,0 l/m 0,5 km/h (0 Bft) NO 45 -2,1 C -1,0 C 0,0 km/h (0 Bft)
07.03.2014 22:20 -0,5 C 89 % 1025,0 hPa 0,0 l/m 0,0 km/h (0 Bft) NO 45 -2,1 C -1,0 C 0,0 km/h (0 Bft)
07.03.2014 22:25 -0,7 C 89 % 1025,0 hPa 0,0 l/m 0,0 km/h (0 Bft) O-SO 112 -2,3 C -1,0 C 0,0 km/h (0 Bft)
07.03.2014 22:30 -0,3 C 90 % 1025,1 hPa 0,0 l/m 0,2 km/h (0 Bft) O-SO 112 -1,7 C -0,9 C 0,0 km/h (0 Bft)
07.03.2014 22:35 -0,7 C 90 % 1025,1 hPa 0,0 l/m 0,2 km/h (0 Bft) O-SO 112 -2,1 C -0,9 C 0,0 km/h (0 Bft)
07.03.2014 22:40 -0,9 C 89 % 1025,1 hPa 0,0 l/m 0,0 km/h (0 Bft) O-NO 67 -2,5 C -1,1 C 0,0 km/h (0 Bft)
07.03.2014 22:45 -1,1 C 89 % 1025,1 hPa 0,0 l/m 0,0 km/h (0 Bft) NO 45 -2,7 C -1,3 C 0,0 km/h (0 Bft)
07.03.2014 22:50 -1,1 C 90 % 1025,1 hPa 0,0 l/m 0,2 km/h (0 Bft) NO 45 -2,5 C -1,3 C 0,0 km/h (0 Bft)
07.03.2014 22:55 -1,3 C 89 % 1025,1 hPa 0,0 l/m 0,2 km/h (0 Bft) N-NO 22 -2,9 C -1,4 C 0,0 km/h (0 Bft)
07.03.2014 23:00 -1,1 C 90 % 1025,1 hPa 0,0 l/m 0,0 km/h (0 Bft) N-NO 22 -2,5 C -1,4 C 0,0 km/h (0 Bft)
07.03.2014 23:05 -1,3 C 89 % 1025,1 hPa 0,0 l/m 0,0 km/h (0 Bft) N-NO 22 -2,9 C -1,4 C 0,0 km/h (0 Bft)
07.03.2014 23:10 -1,4 C 90 % 1024,9 hPa 0,0 l/m 0,0 km/h (0 Bft) N-NO 22 -2,8 C -1,5 C 0,0 km/h (0 Bft)
07.03.2014 23:15 -1,3 C 90 % 1024,9 hPa 0,0 l/m 0,3 km/h (0 Bft) NO 45 -2,7 C -1,6 C 4,0 km/h (1 Bft)
07.03.2014 23:20 -1,2 C 90 % 1024,9 hPa 0,0 l/m 0,8 km/h (0 Bft) NO 45 -2,6 C -1,4 C 0,0 km/h (0 Bft)
07.03.2014 23:25 -1,4 C 90 % 1024,9 hPa 0,0 l/m 0,6 km/h (0 Bft) NO 45 -2,8 C -1,5 C 0,0 km/h (0 Bft)
07.03.2014 23:30 -1,5 C 90 % 1025,1 hPa 0,0 l/m 0,0 km/h (0 Bft) N-NO 22 -2,9 C -1,6 C 0,0 km/h (0 Bft)
07.03.2014 23:35 -1,3 C 90 % 1025,1 hPa 0,0 l/m 0,0 km/h (0 Bft) N-NO 22 -2,7 C -1,6 C 0,0 km/h (0 Bft)
07.03.2014 23:40 -1,3 C 90 % 1025,1 hPa 0,0 l/m 0,0 km/h (0 Bft) N-NO 22 -2,7 C -1,5 C 0,0 km/h (0 Bft)
07.03.2014 23:45 -1,4 C 90 % 1025,1 hPa 0,0 l/m 0,0 km/h (0 Bft) NO 45 -2,8 C -1,5 C 0,0 km/h (0 Bft)
07.03.2014 23:50 -1,5 C 90 % 1025,0 hPa 0,0 l/m 0,0 km/h (0 Bft) N 360 -2,9 C -1,4 C 0,0 km/h (0 Bft)
07.03.2014 23:55 -1,6 C 90 % 1025,0 hPa 0,0 l/m 0,0 km/h (0 Bft) NO 45 -3,0 C -1,6 C 0,0 km/h (0 Bft)
_ Min-Zeit 00:55 15:10 04:25 - 23:55 - - 00:55 07:05 23:55
Minimum _ -3,6 C 40 % 1022,6 hPa - 0,0 km/h (0 Bft) - - -5,0 C -4,1 C 0,0 km/h (0 Bft)
_ Max-Zeit 14:55 09:15 20:45 23:55 11:30 - - 09:50 16:10 12:00
Maximum _ 13,5 C 94 % 1025,5 hPa 0,0 l/m 9,3 km/h
S (2 Bft)
- - 2,6 C 16,7 C 15,6 km/h
W (3 Bft)
Durchschnitt _ 3,1 C 78 % 1024,3 hPa #0,0 l/m 2,6 km/h (1 Bft) NO - -1,0 C 4,2 C 3,2 km/h (1 Bft)